Dewpoint
-4 -4 -4 -5 -6 -4 -3 2 3 4 5 7 10 12 12 12 13 13 13 12 11 10 10 12 5 1 4 7 9 8 4 0 0 1 1 1 3 3 4 4 4 5 4
-4 -4 -4 -5 -4 -3 -3 -0 2 -0 2 4 5 7 10 11 12 12 13 13 12 10 11 11 12 7 2 6 7 9 7 4 1 1 1 1 2 3 3 4 5 6 6
-6 -6 -7 -7 -6 -7 -8 -6 -0 1 3 4 4 4 5 7 10 12 11 11 12 11 11 11 11 12 9 3 7 11 9 10 7 3 2 1 1 2 2 3 4 5 7
-4 -3 -3 -3 -4 -4 -4 -2 4 5 5 5 5 4 5 6 8 9 10 11 8 11 11 11 11 11 12 9 4 6 11 9 9 10 8 6 5 3 3 3 3 3 4
-3 -3 -3 -2 -2 -2 -2 -1 2 5 5 6 6 5 5 5 6 8 8 9 11 9 11 11 11 11 11 12 8 6 8 8 9 10 10 9 9 9 6 4 4 3 3
1 1 2 1 1 0 -0 2 2 3 5 6 6 6 6 6 5 -1 7 8 9 11 11 11 11 11 11 11 12 7 7 9 9 9 10 10 10 9 9 8 7 6 5
3 3 3 3 3 3 3 4 4 4 3 6 6 5 5 5 5 5 5 5 5 10 9 10 11 11 11 11 11 12 8 7 9 9 10 9 8 9 9 8 9 9 9
3 3 3 3 3 3 3 3 3 4 4 4 5 6 5 4 3 3 5 7 7 9 10 11 10 10 11 11 11 9 10 11 10 9 9 9 9 9 8 6 7 8 8
-2 -2 -2 -1 -1 1 3 3 3 3 4 4 4 5 6 4 5 4 6 7 9 10 10 10 10 10 9 11 11 10 11 10 10 11 10 9 10 9 8 9 7 7 8
-8 -9 -10 -9 -11 -11 -8 -2 2 2 3 4 4 5 5 6 6 5 2 6 9 8 10 8 9 10 10 8 10 10 10 10 11 11 10 10 10 10 10 9 9 7 7
-21 -25 -28 -31 -31 -31 -24 -18 -4 2 1 2 4 4 5 6 6 5 4 7 7 9 9 9 8 10 9 10 9 10 10 11 11 11 11 11 10 11 10 10 10 9 9
-22 -29 -33 -32 -30 -29 -29 -29 -25 -17 -0 1 1 4 4 3 4 4 5 6 5 7 7 8 8 9 9 9 9 10 10 10 10 10 10 10 10 11 10 10 10 11 9
-19 -26 -30 -29 -30 -30 -30 -28 -27 -27 -25 -8 -0 -2 2 2 2 3 3 4 5 6 6 6 6 6 6 5 6 8 9 10 9 7 7 9 10 10 10 10 10 10 9
-16 -24 -27 -30 -31 -31 -31 -30 -29 -27 -26 -24 -22 -12 -14 -10 -3 0 1 1 3 5 5 5 5 5 5 5 4 4 5 6 7 6 6 7 8 9 9 9 8 8 7
-12 -18 -26 -30 -29 -28 -27 -27 -26 -26 -27 -26 -25 -23 -24 -23 -22 -18 -14 -4 0 3 4 3 3 4 3 3 4 4 4 3 4 4 4 4 4 7 8 8 9 8 8
-9 -16 -24 -28 -26 -26 -25 -24 -24 -23 -23 -24 -24 -23 -23 -23 -23 -22 -20 -17 -11 -3 1 1 -1 -4 -3 -1 0 1 3 4 4 3 4 3 2 4 4 4 5 6 6
-8 -13 -22 -27 -25 -24 -23 -23 -22 -22 -22 -22 -21 -22 -21 -21 -20 -20 -19 -19 -18 -18 -6 -5 -7 -16 -19 -21 -21 -20 -14 -5 1 -3 -2 -4 -11 -4 1 -2 0 1 2
-6 -9 -17 -26 -25 -24 -23 -22 -22 -22 -21 -20 -20 -19 -19 -18 -16 -16 -12 -12 -15 -16 -16 -12 -14 -18 -18 -18 -19 -20 -19 -19 -21 -21 -17 -17 -22 -25 -22 -11 -5 -5 -3
-6 -7 -14 -25 -25 -24 -23 -21 -20 -20 -19 -18 -18 -18 -17 -16 -11 -10 -6 -5 -6 -8 -11 -11 -8 -14 -17 -18 -18 -17 -17 -19 -18 -20 -20 -20 -21 -23 -24 -25 -23 -17 -12
-5 -6 -11 -23 -26 -24 -23 -21 -20 -18 -17 -16 -16 -16 -16 -16 -16 -13 -8 -6 -5 -5 -5 -5 -5 -5 -5 -6 -6 -10 -14 -16 -17 -17 -18 -19 -20 -22 -23 -23 -23 -25 -24
-5 -6 -9 -20 -25 -25 -23 -22 -20 -18 -17 -15 -15 -16 -15 -15 -16 -15 -14 -7 -5 -5 -5 -5 -5 -5 -5 -6 -5 -6 -6 -8 -9 -12 -14 -16 -18 -19 -21 -22 -23 -23 -23
-5 -5 -8 -18 -25 -24 -23 -22 -23 -20 -17 -16 -16 -15 -16 -16 -15 -14 -13 -12 -11 -6 -6 -6 -5 -5 -5 -6 -6 -6 -5 -5 -6 -6 -8 -13 -13 -17 -18 -20 -21 -22 -23
-4 -5 -7 -17 -24 -24 -23 -22 -23 -22 -17 -16 -16 -16 -15 -15 -15 -14 -13 -12 -9 -10 -10 -8 -6 -6 -6 -6 -6 -6 -6 -5 -5 -6 -7 -7 -10 -12 -16 -19 -20 -20 -21
-4 -5 -7 -16 -24 -23 -22 -22 -22 -22 -19 -17 -17 -16 -14 -13 -13 -13 -10 -6 -6 -6 -6 -7 -6 -6 -6 -6 -7 -7 -7 -7 -7 -7 -6 -7 -8 -8 -14 -19 -19 -20 -21
-4 -5 -7 -17 -24 -22 -21 -22 -22 -21 -19 -17 -16 -15 -13 -9 -8 -9 -7 -7 -7 -7 -7 -7 -8 -9 -8 -8 -7 -7 -7 -7 -7 -7 -7 -7 -8 -8 -9 -17 -18 -15 -15
-4 -6 -7 -16 -23 -22 -21 -21 -21 -21 -18 -15 -14 -12 -10 -9 -9 -7 -7 -7 -7 -7 -7 -7 -7 -7 -8 -8 -8 -8 -8 -8 -8 -8 -8 -8 -8 -8 -8 -10 -15 -17 -19
Wind_Speed
16 17 17 18 18 19 19 19 18 19 21 22 24 25 28 26 25 26 27 29 33 29 30 32 34 33 30 29 28 26 25 24 23 22 21 21 20 20 20 19 18 16 16
16 16 16 16 16 17 18 19 20 22 22 22 24 25 28 33 31 30 29 28 33 33 31 32 35 36 35 33 32 31 28 26 25 25 24 23 22 22 21 21 20 19 19
14 15 16 17 17 18 19 19 20 20 20 21 23 25 27 29 32 33 36 32 30 36 35 35 35 37 38 38 36 34 33 29 28 28 26 25 24 23 23 23 22 22 21
15 16 17 18 18 19 20 20 18 19 20 21 22 23 24 26 29 34 38 40 40 37 38 37 38 38 39 39 40 38 37 33 30 28 28 27 26 25 24 24 24 24 23
16 17 18 19 20 20 20 21 21 20 21 22 24 24 25 26 28 32 36 40 42 43 40 39 38 38 38 40 41 41 39 38 34 32 29 28 28 27 25 25 25 25 25
16 17 17 18 19 18 18 19 22 22 20 22 23 25 27 28 31 35 36 37 38 38 38 37 38 38 38 40 40 43 43 39 38 37 34 32 30 29 27 26 26 26 26
13 13 12 13 14 14 16 19 21 23 24 20 23 23 25 26 27 30 33 37 40 37 35 35 36 38 36 36 39 42 45 47 40 42 39 38 37 34 32 30 29 29 28
13 13 14 14 14 15 16 18 19 24 22 22 20 24 24 25 23 25 30 32 33 33 32 30 32 36 35 37 37 34 39 39 39 42 45 43 40 38 36 37 33 31 31
13 13 14 15 16 16 17 19 20 21 22 24 18 15 16 23 29 29 28 29 25 26 26 24 23 25 29 34 38 40 42 38 40 42 42 44 45 44 44 43 40 38 33
13 14 15 16 17 17 17 17 18 19 20 21 24 16 16 22 21 19 33 27 14 12 18 18 17 22 27 30 26 29 32 31 35 41 43 41 40 43 46 44 45 43 40
14 15 16 16 16 16 16 16 16 17 18 19 18 20 23 16 14 14 16 18 15 6 6 8 15 19 15 18 19 22 23 21 25 29 33 37 34 34 36 41 45 44 51
14 15 15 16 17 17 16 16 15 15 15 15 15 15 17 17 16 12 15 19 14 14 10 9 8 13 16 20 18 20 23 19 20 23 29 34 33 33 31 31 32 33 44
13 15 16 17 17 17 16 15 15 14 14 15 15 14 13 14 13 12 11 14 10 9 7 5 3 2 4 7 7 18 21 24 20 14 9 27 29 26 29 29 31 35 26
15 17 17 17 16 15 14 14 13 13 13 13 13 13 14 14 13 13 12 15 14 7 8 9 8 8 8 9 9 15 12 10 18 15 12 16 24 24 25 25 25 26 25
15 16 17 16 14 13 13 12 12 12 12 12 12 13 13 12 11 10 10 10 10 10 10 10 9 13 17 16 13 14 15 20 23 20 14 16 10 18 20 21 21 24 25
14 16 16 15 14 13 13 12 11 11 10 11 12 12 12 12 11 10 10 9 8 8 8 17 18 19 19 20 20 20 18 15 17 24 24 25 23 23 21 18 20 22 23
15 16 16 15 13 12 12 12 11 11 10 10 11 11 12 12 12 11 10 9 8 8 9 9 12 16 18 18 19 18 17 17 22 19 20 22 25 25 23 24 23 24 25
16 16 16 15 14 12 11 10 10 10 10 10 10 11 11 11 11 10 10 9 9 10 10 11 13 14 12 15 15 15 12 11 11 13 15 16 19 20 23 26 26 25 27
16 16 17 16 15 13 12 10 10 9 9 9 9 10 11 11 11 11 10 10 10 10 10 11 12 14 15 15 16 14 12 10 10 11 12 13 15 17 17 18 20 24 28
17 16 16 16 15 14 13 12 12 11 10 9 9 9 10 11 11 11 10 10 10 10 10 10 10 10 11 12 12 15 16 16 15 12 11 13 14 14 15 16 17 19 23
19 18 17 16 14 13 13 13 13 13 12 12 12 11 11 11 11 12 12 11 11 12 12 12 13 13 13 15 15 16 16 19 17 14 15 19 17 16 15 15 17 18 19
21 19 18 17 16 14 13 14 13 13 14 14 13 14 13 13 12 12 12 13 14 11 12 13 15 15 14 15 14 15 16 16 16 11 23 25 20 19 17 17 18 19 19
21 20 20 18 17 15 14 14 16 14 15 15 16 16 16 14 14 14 14 14 14 16 16 16 16 15 17 16 17 19 17 18 19 18 22 21 20 21 20 20 19 19 19
23 21 20 19 18 16 15 15 16 16 16 17 17 16 16 15 14 14 14 13 14 14 14 13 14 16 17 16 17 19 22 23 26 21 18 20 18 22 24 22 19 18 17
24 22 21 19 17 17 16 16 16 17 16 17 17 17 17 15 14 13 13 14 15 15 14 18 17 18 18 17 18 20 19 18 22 22 20 22 17 23 24 24 16 9 10
24 23 21 19 18 17 16 17 17 17 17 16 15 15 15 14 14 12 12 14 16 17 17 18 18 17 17 17 18 17 18 20 21 21 10 13 15 17 14 16 8 27 24
Wind_Direction
305 304 302 300 298 295 292 289 288 286 282 278 273 272 269 265 262 258 260 256 260 258 257 255 252 249 245 246 247 251 250 243 241 240 240 238 237 236 238 238 237 237 236
319 317 314 309 306 303 302 299 295 291 286 282 278 274 270 268 265 262 256 258 263 262 257 254 253 250 248 244 244 245 247 245 242 241 240 240 240 238 238 238 238 237 238
320 316 315 315 313 312 310 309 306 300 295 289 283 279 274 270 266 263 260 258 259 267 260 255 252 252 249 246 242 242 244 242 241 240 240 241 241 241 240 241 241 241 241
318 317 316 314 313 315 317 317 314 309 302 295 289 283 278 273 270 267 260 258 261 260 264 258 252 250 250 247 244 241 241 243 243 242 240 240 240 241 241 242 243 242 242
317 315 314 314 314 315 318 319 319 317 309 298 292 289 282 275 271 268 265 261 261 259 258 262 257 251 249 247 244 242 241 242 241 243 242 243 242 243 243 245 245 244 244
328 324 320 315 311 315 322 328 330 332 318 309 299 290 287 283 280 270 266 261 262 258 256 257 258 250 248 244 245 243 240 241 240 241 242 243 241 239 240 243 246 248 248
354 358 2 2 360 350 339 334 333 330 331 322 308 299 290 285 281 277 274 265 257 259 258 258 256 253 250 244 243 245 242 237 245 248 241 239 237 236 237 237 244 246 247
2 2 360 358 353 346 341 338 339 336 333 328 311 307 304 300 293 289 275 260 254 254 254 252 257 253 251 249 240 244 250 243 244 248 245 243 244 239 240 237 242 245 246
357 356 354 352 350 346 344 345 344 343 335 335 321 312 314 301 308 298 302 270 246 249 254 255 261 257 264 260 247 240 240 243 246 242 243 244 243 243 248 246 235 241 243
345 345 344 344 345 348 346 344 347 349 348 338 333 311 311 312 312 317 313 282 251 254 255 266 284 274 261 269 262 251 240 241 244 245 245 247 245 250 248 244 246 243 242
338 340 340 338 337 338 338 340 339 340 343 345 342 344 332 334 341 316 309 324 335 8 282 251 242 254 262 221 217 208 219 242 245 247 253 250 248 248 253 247 247 253 245
336 335 335 336 337 336 335 335 333 332 332 339 348 341 354 4 352 348 324 324 337 340 338 306 305 276 270 252 214 226 211 224 234 252 244 247 247 238 239 243 246 257 244
332 335 338 339 337 336 335 334 333 331 332 331 335 341 345 352 349 350 338 333 316 310 315 339 357 290 265 327 295 236 237 232 217 171 185 222 233 233 229 232 236 251 265
333 337 338 337 337 338 339 339 338 335 333 332 334 332 341 341 345 349 350 346 336 317 316 345 326 341 321 307 311 327 328 248 220 221 215 216 222 236 237 240 247 253 260
326 330 332 333 335 337 340 343 344 343 339 336 333 334 333 334 340 344 345 339 341 323 328 316 323 319 324 326 323 312 294 310 305 306 290 295 279 246 245 245 254 255 256
320 325 328 330 331 333 335 338 342 343 343 340 341 343 344 345 345 346 346 344 338 322 303 315 319 324 323 320 316 306 302 280 281 285 301 304 301 286 273 265 258 260 261
313 321 324 324 324 325 328 330 334 339 343 347 345 345 346 347 348 348 347 344 339 331 323 319 325 325 327 329 329 327 318 303 293 301 296 299 291 285 282 277 271 269 265
305 313 318 318 318 319 319 321 326 331 336 341 345 347 347 349 348 349 349 348 345 341 337 328 328 330 334 334 337 335 336 326 306 300 290 282 279 282 276 276 274 269 269
295 306 314 315 313 313 311 314 319 324 326 329 333 337 340 343 344 343 343 339 334 335 334 332 328 332 333 331 330 332 333 328 324 301 287 283 286 286 286 279 278 273 269
285 295 303 305 303 303 307 309 314 316 316 318 322 324 325 327 329 329 332 330 330 326 325 325 325 324 328 329 333 331 332 330 327 320 304 300 300 304 299 294 281 275 272
279 287 294 297 292 289 294 299 304 307 309 311 314 315 315 315 315 312 314 320 324 320 319 317 316 317 324 329 334 334 332 327 328 319 321 319 318 312 302 290 290 289 284
272 280 288 291 286 285 287 292 297 298 301 304 307 307 309 311 309 305 302 301 302 308 307 307 306 304 310 313 315 314 314 318 323 319 325 321 324 320 315 308 302 294 289
266 274 282 286 283 279 281 286 291 294 294 296 301 303 305 304 304 304 304 301 296 291 289 290 291 293 293 299 302 306 306 305 300 302 310 309 320 312 314 311 308 299 291
261 266 274 280 278 274 276 278 283 287 288 291 295 297 298 297 297 301 306 305 299 299 293 287 285 286 285 290 298 296 296 295 297 307 303 300 312 308 309 312 311 300 286
256 262 269 273 274 272 273 276 277 282 286 289 293 295 293 290 290 300 302 298 302 298 296 300 295 286 285 282 277 285 290 293 292 296 291 294 304 308 309 312 312 281 279
251 256 265 269 269 267 271 275 276 280 283 286 289 293 294 281 293 296 296 299 299 298 297 298 298 292 289 283 282 279 277 277 284 295 296 275 293 312 310 304 270 301 303
Height
1515 1514 1513 1512 1510 1509 1508 1507 1506 1505 1504 1504 1503 1502 1500 1500 1500 1499 1497 1495 1495 1497 1498 1500 1501 1503 1505 1506 1507 1508 1509 1510 1511 1511 1512 1513 1514 1516 1517 1518 1519 1520 1521
1512 1511 1510 1509 1507 1505 1504 1502 1501 1499 1497 1497 1496 1495 1494 1491 1491 1491 1490 1490 1487 1489 1490 1492 1493 1496 1498 1500 1501 1502 1503 1504 1505 1506 1507 1508 1510 1511 1513 1514 1515 1516 1518
1509 1507 1506 1504 1503 1501 1499 1497 1496 1493 1491 1490 1488 1487 1486 1485 1483 1482 1480 1480 1480 1479 1482 1483 1485 1487 1490 1492 1494 1495 1497 1498 1499 1500 1501 1503 1504 1506 1508 1509 1511 1512 1514
1507 1505 1503 1501 1500 1498 1495 1493 1492 1489 1487 1485 1482 1480 1478 1476 1475 1474 1471 1470 1470 1472 1471 1474 1476 1477 1480 1483 1485 1488 1489 1491 1493 1495 1496 1497 1498 1500 1501 1503 1506 1507 1509
1506 1503 1501 1498 1496 1494 1492 1490 1488 1485 1481 1479 1476 1473 1470 1467 1467 1465 1462 1461 1460 1460 1463 1464 1466 1468 1470 1473 1476 1479 1482 1484 1486 1488 1490 1492 1493 1494 1496 1497 1499 1502 1503
1503 1501 1498 1495 1493 1491 1489 1486 1484 1481 1478 1474 1470 1467 1464 1461 1457 1455 1454 1453 1452 1452 1452 1456 1456 1458 1461 1463 1467 1469 1472 1475 1478 1479 1482 1485 1487 1487 1489 1491 1493 1495 1497
1502 1499 1497 1494 1491 1489 1486 1484 1481 1478 1475 1473 1467 1462 1458 1455 1451 1449 1446 1443 1443 1444 1444 1446 1448 1449 1451 1453 1456 1460 1462 1466 1468 1471 1474 1475 1478 1480 1481 1482 1485 1488 1490
1501 1499 1496 1494 1491 1488 1486 1483 1480 1475 1472 1470 1465 1460 1451 1449 1445 1443 1440 1437 1435 1435 1437 1437 1439 1441 1442 1444 1443 1448 1453 1454 1456 1460 1466 1469 1470 1473 1474 1475 1477 1480 1483
1500 1498 1495 1492 1489 1486 1483 1480 1477 1473 1468 1466 1464 1462 1452 1447 1442 1439 1436 1432 1428 1429 1433 1431 1431 1435 1436 1436 1432 1438 1443 1445 1448 1453 1457 1459 1461 1464 1465 1467 1469 1472 1474
1499 1497 1494 1491 1488 1485 1482 1479 1475 1472 1468 1464 1460 1459 1456 1451 1444 1435 1431 1430 1422 1423 1427 1428 1429 1430 1430 1430 1432 1428 1435 1436 1442 1445 1447 1450 1452 1455 1455 1459 1461 1464 1465
1498 1495 1492 1490 1487 1484 1481 1477 1474 1471 1467 1463 1459 1455 1451 1449 1445 1440 1433 1426 1424 1415 1422 1422 1421 1429 1423 1421 1422 1416 1424 1431 1435 1438 1439 1441 1442 1445 1447 1448 1451 1453 1455
1496 1493 1491 1488 1484 1481 1478 1475 1472 1469 1465 1462 1458 1454 1450 1448 1445 1442 1437 1435 1431 1428 1425 1424 1418 1418 1418 1421 1415 1417 1416 1422 1427 1432 1434 1435 1433 1435 1438 1440 1443 1442 1443
1494 1491 1488 1485 1481 1478 1475 1472 1470 1467 1463 1459 1456 1453 1450 1448 1446 1443 1440 1435 1432 1432 1426 1425 1422 1421 1421 1416 1417 1414 1415 1417 1420 1420 1421 1423 1427 1428 1429 1432 1434 1434 1434
1492 1489 1486 1482 1479 1475 1472 1469 1467 1464 1461 1457 1454 1451 1449 1447 1445 1443 1441 1438 1433 1430 1425 1424 1423 1423 1420 1421 1417 1416 1418 1417 1415 1418 1415 1417 1418 1421 1423 1425 1427 1428 1429
1489 1486 1483 1479 1476 1473 1470 1467 1464 1462 1459 1456 1453 1450 1447 1444 1442 1441 1439 1438 1437 1433 1428 1424 1423 1421 1418 1417 1416 1414 1414 1413 1419 1419 1414 1416 1414 1414 1417 1418 1420 1422 1423
1487 1484 1481 1477 1474 1471 1468 1465 1462 1459 1457 1454 1452 1449 1446 1443 1441 1439 1437 1436 1435 1434 1432 1427 1423 1420 1417 1414 1413 1414 1414 1412 1414 1417 1416 1411 1411 1414 1413 1411 1413 1415 1418
1483 1481 1478 1475 1472 1469 1466 1463 1460 1457 1454 1452 1451 1448 1446 1443 1441 1438 1436 1434 1433 1431 1430 1428 1424 1420 1417 1416 1413 1411 1409 1409 1409 1410 1408 1407 1413 1412 1406 1409 1409 1409 1411
1480 1477 1474 1471 1469 1467 1464 1461 1459 1455 1453 1450 1447 1446 1444 1442 1440 1438 1436 1433 1432 1429 1427 1426 1423 1420 1418 1415 1413 1412 1411 1410 1408 1405 1407 1407 1408 1408 1406 1405 1405 1403 1403
1475 1474 1472 1470 1467 1465 1462 1460 1457 1454 1451 1449 1446 1443 1441 1440 1439 1437 1435 1433 1431 1428 1426 1424 1421 1419 1417 1415 1414 1413 1411 1409 1407 1409 1407 1408 1405 1403 1402 1400 1396 1395 1398
1470 1468 1466 1464 1463 1461 1460 1458 1455 1453 1451 1447 1445 1442 1439 1437 1435 1434 1433 1432 1430 1428 1427 1424 1421 1419 1418 1416 1414 1410 1407 1405 1405 1404 1404 1403 1403 1395 1395 1393 1393 1389 1390
1465 1464 1462 1459 1457 1455 1454 1454 1453 1451 1449 1447 1444 1440 1437 1435 1432 1431 1429 1428 1428 1425 1423 1422 1420 1418 1415 1413 1410 1406 1405 1403 1403 1400 1398 1396 1391 1393 1390 1390 1386 1384 1384
1459 1458 1457 1455 1454 1451 1450 1449 1449 1448 1446 1444 1442 1439 1435 1432 1430 1428 1426 1425 1424 1423 1422 1420 1418 1416 1415 1413 1411 1409 1407 1404 1401 1398 1394 1391 1389 1388 1386 1383 1381 1380 1377
1453 1452 1452 1451 1449 1447 1446 1444 1443 1443 1443 1440 1438 1436 1433 1429 1426 1424 1423 1422 1421 1420 1418 1416 1415 1414 1411 1410 1407 1404 1402 1401 1399 1397 1393 1387 1387 1385 1380 1378 1375 1376 1373
1446 1446 1445 1444 1444 1443 1442 1439 1437 1436 1437 1436 1434 1431 1429 1427 1423 1420 1419 1419 1418 1417 1414 1412 1411 1409 1407 1405 1404 1402 1398 1396 1393 1392 1390 1385 1384 1379 1375 1373 1372 1369 1367
1439 1439 1439 1439 1437 1439 1437 1436 1434 1431 1431 1430 1429 1427 1425 1424 1421 1417 1415 1414 1412 1412 1411 1407 1404 1402 1401 1401 1400 1398 1395 1393 1390 1388 1386 1382 1378 1374 1370 1367 1366 1365 1365
1430 1431 1431 1431 1432 1432 1432 1432 1430 1427 1426 1424 1423 1422 1419 1419 1417 1415 1412 1410 1408 1407 1407 1403 1401 1399 1397 1395 1394 1393 1391 1389 1387 1384 1382 1381 1379 1376 1369 1365 1366 1365 1360